Location: Unspecified
(32.1006°N, 0.0000°E)
Time: 04:47:27
(UTC+00:00)

CSL-04 DEB - Visible Passes

Search period start: 04 April 2026 00:00
Search period end: 14 April 2026 00:00
Orbit: 723 x 1210 km, 98.7° (Epoch: 29 March)

Date Brightness Start Highest point End Pass type
(mag) Time Alt. Az. Time Alt. Az. Time Alt. Az.
4 Apr ? 19:23:10 10° NNE 19:29:50 36° E 19:36:17 10° SSE visible
4 Apr ? 21:06:04 10° N 21:12:40 38° WNW 21:19:10 10° SW visible
5 Apr ? 19:44:52 10° NNE 19:52:03 55° E 19:58:59 10° S visible
5 Apr ? 21:28:45 10° NNW 21:34:31 26° WNW 21:40:14 10° WSW visible
6 Apr ? 20:06:49 10° NNE 20:14:12 80° ESE 20:21:18 10° S visible
6 Apr ? 21:51:50 10° NNW 21:56:17 18° WNW 22:00:42 10° W visible
7 Apr ? 18:48:03 10° NE 18:52:49 18° E 18:57:25 10° SE visible
7 Apr ? 20:28:57 10° N 20:36:15 71° WNW 20:43:17 10° SSW visible
7 Apr ? 22:16:08 10° NW 22:17:57 11° WNW 22:19:47 10° WNW visible
8 Apr ? 19:09:03 10° NE 19:15:09 28° E 19:21:01 10° SSE visible
8 Apr ? 20:51:16 10° N 20:58:14 48° WNW 21:04:57 10° SW visible
9 Apr ? 19:30:33 10° NNE 19:37:26 42° E 19:43:57 10° SSE visible
9 Apr ? 21:13:48 10° N 21:20:08 33° WNW 21:26:14 10° SW visible
10 Apr ? 19:52:21 10° NNE 19:59:38 64° E 20:06:29 10° S visible
10 Apr ? 21:36:38 10° NNW 21:41:55 22° WNW 21:47:05 10° WSW visible
11 Apr ? 20:14:22 10° NNE 20:21:45 88° WNW 20:28:39 10° SSW visible
11 Apr ? 22:00:01 10° NNW 22:03:38 15° WNW 22:07:12 10° W visible
12 Apr ? 18:55:09 10° NE 19:00:24 21° E 19:05:24 10° SE visible
12 Apr ? 20:36:35 10° N 20:43:46 61° WNW 20:50:31 10° SSW visible
13 Apr ? 19:16:22 10° NE 19:22:44 32° E 19:28:42 10° SSE visible
13 Apr ? 20:58:59 10° N 21:05:42 41° WNW 21:12:01 10° SW visible
